Photometre #855[NE_1.6_Dp] Loftus_MO AOT

File : 20220921_855.hum

21/09/2022,06:48:13,TEMP=11.3,BA=5.64,STAT.A,ExtBa=12.30
21/09/2022,06:52:41,TEMP=11.5,BA=5.64,STAT.A,ExtBa=12.30
21/09/2022,06:57:55,TEMP=11.5,BA=5.64,STAT.A,ExtBa=12.30
21/09/2022,07:04:09,TEMP=11.4,BA=5.64,STAT.A,ExtBa=12.30
21/09/2022,07:11:41,TEMP=11.9,BA=5.64,STAT.A,ExtBa=12.30
21/09/2022,07:15:23,TEMP=12.3,BA=5.64,STAT.D,ExtBa=12.20
21/09/2022,07:18:23,TEMP=12.7,BA=5.64,STAT.D,ExtBa=12.20
21/09/2022,07:21:01,TEMP=13.0,BA=5.64,STAT.A,ExtBa=12.20
21/09/2022,07:24:23,TEMP=13.3,BA=5.64,STAT.D,ExtBa=12.20
21/09/2022,07:27:23,TEMP=13.6,BA=5.64,STAT.D,ExtBa=12.20
21/09/2022,07:30:23,TEMP=14.0,BA=5.64,STAT.D,ExtBa=12.20
21/09/2022,07:32:54,TEMP=14.3,BA=5.64,STAT.B,ExtBa=12.20
21/09/2022,07:42:26,TEMP=15.3,BA=5.60,STAT.A,ExtBa=12.10
21/09/2022,07:45:03,TEMP=15.3,BA=5.60,STAT.A,ExtBa=12.20
21/09/2022,07:48:23,TEMP=15.3,BA=5.60,STAT.D,ExtBa=12.20
21/09/2022,07:51:23,TEMP=15.4,BA=5.64,STAT.D,ExtBa=12.20
21/09/2022,07:53:23,TEMP=15.8,BA=5.64,STAT.A,ExtBa=12.20
21/09/2022,07:57:23,TEMP=15.4,BA=5.64,STAT.D,ExtBa=12.20
21/09/2022,08:00:45,TEMP=15.4,BA=5.64,STAT.A,ExtBa=12.20
21/09/2022,08:10:28,TEMP=15.3,BA=5.64,STAT.C,ExtBa=12.20
21/09/2022,08:21:23,TEMP=15.3,BA=5.64,STAT.D,ExtBa=12.20
21/09/2022,08:23:22,TEMP=15.8,BA=5.64,STAT.A,ExtBa=12.20
21/09/2022,08:35:41,TEMP=15.5,BA=5.64,STAT.A,ExtBa=12.20
21/09/2022,08:48:23,TEMP=15.7,BA=5.64,STAT.D,ExtBa=12.20
21/09/2022,08:51:23,TEMP=16.1,BA=5.64,STAT.D,ExtBa=12.20
21/09/2022,08:53:22,TEMP=16.5,BA=5.64,STAT.A,ExtBa=12.20
21/09/2022,08:57:18,TEMP=16.4,BA=5.64,STAT.F,ExtBa=12.20
21/09/2022,09:07:22,TEMP=17.0,BA=5.60,STAT.b=11.0
21/09/2022,09:12:33,TEMP=16.7,BA=5.64,STAT.D,ExtBa=12.20
21/09/2022,09:15:23,TEMP=16.8,BA=5.64,STAT.D,ExtBa=12.20
21/09/2022,09:18:23,TEMP=16.8,BA=5.64,STAT.D,ExtBa=12.20
21/09/2022,09:21:23,TEMP=16.9,BA=5.60,STAT.D,ExtBa=12.20
21/09/2022,09:27:16,TEMP=16.9,BA=5.60,STAT.D,ExtBa=12.20
21/09/2022,09:39:23,TEMP=17.1,BA=5.64,STAT.D,ExtBa=12.20
21/09/2022,09:42:16,TEMP=17.4,BA=5.60,STAT.D,ExtBa=12.20
21/09/2022,10:23:40,TEMP=19.8,BA=5.60,STAT.b=11.0
21/09/2022,10:24:23,TEMP=19.8,BA=5.60,STAT.D,ExtBa=12.10
21/09/2022,10:27:17,TEMP=20.0,BA=5.60,STAT.D,ExtBa=12.10
21/09/2022,10:30:24,TEMP=20.2,BA=5.64,STAT.D,ExtBa=12.10
21/09/2022,10:42:17,TEMP=19.8,BA=5.64,STAT.D,ExtBa=12.20
21/09/2022,10:48:43,TEMP=19.9,BA=5.64,STAT.D,ExtBa=12.20
21/09/2022,10:51:24,TEMP=20.1,BA=5.56,STAT.D,ExtBa=12.10
21/09/2022,10:57:18,TEMP=19.5,BA=5.56,STAT.F,ExtBa=12.20
21/09/2022,11:09:24,TEMP=19.2,BA=5.64,STAT.D,ExtBa=12.20
21/09/2022,11:12:17,TEMP=19.4,BA=5.56,STAT.D,ExtBa=12.20
21/09/2022,11:24:24,TEMP=19.4,BA=5.64,STAT.D,ExtBa=12.20
21/09/2022,11:27:17,TEMP=19.6,BA=5.64,STAT.D,ExtBa=12.20
21/09/2022,11:33:42,TEMP=19.7,BA=5.56,STAT.D,ExtBa=12.20
21/09/2022,11:36:24,TEMP=20.2,BA=5.56,STAT.D,ExtBa=12.10
21/09/2022,11:42:17,TEMP=20.1,BA=5.64,STAT.D,ExtBa=12.20
21/09/2022,11:45:24,TEMP=20.2,BA=5.64,STAT.D,ExtBa=12.10
21/09/2022,11:57:18,TEMP=20.5,BA=5.64,STAT.F,ExtBa=12.20
21/09/2022,12:12:17,TEMP=20.2,BA=5.64,STAT.D,ExtBa=12.10
21/09/2022,12:15:24,TEMP=20.4,BA=5.64,STAT.D,ExtBa=12.10
21/09/2022,12:18:24,TEMP=20.7,BA=5.64,STAT.D,ExtBa=12.10
21/09/2022,12:21:24,TEMP=20.9,BA=5.60,STAT.D,ExtBa=12.10
21/09/2022,12:24:24,TEMP=21.0,BA=5.60,STAT.D,ExtBa=12.10
21/09/2022,12:27:17,TEMP=20.9,BA=5.60,STAT.D,ExtBa=12.10
21/09/2022,12:39:24,TEMP=20.7,BA=5.60,STAT.D,ExtBa=12.10
21/09/2022,12:42:17,TEMP=21.1,BA=5.56,STAT.D,ExtBa=12.10
21/09/2022,12:54:24,TEMP=19.8,BA=5.64,STAT.D,ExtBa=12.20
21/09/2022,12:57:18,TEMP=19.7,BA=5.64,STAT.F,ExtBa=12.20
21/09/2022,13:09:24,TEMP=18.6,BA=5.64,STAT.D,ExtBa=12.20
21/09/2022,13:12:17,TEMP=18.8,BA=5.56,STAT.D,ExtBa=12.20
21/09/2022,13:24:24,TEMP=18.2,BA=5.64,STAT.D,ExtBa=12.20
21/09/2022,13:27:17,TEMP=18.3,BA=5.64,STAT.D,ExtBa=12.20
21/09/2022,13:39:24,TEMP=18.0,BA=5.60,STAT.D,ExtBa=12.20
21/09/2022,13:42:17,TEMP=18.1,BA=5.56,STAT.D,ExtBa=12.20
21/09/2022,13:54:23,TEMP=17.9,BA=5.64,STAT.D,ExtBa=12.20
21/09/2022,13:57:18,TEMP=18.1,BA=5.64,STAT.F,ExtBa=12.20
21/09/2022,14:09:23,TEMP=17.9,BA=5.64,STAT.D,ExtBa=12.20
21/09/2022,14:12:16,TEMP=18.1,BA=5.56,STAT.D,ExtBa=12.20
21/09/2022,14:24:23,TEMP=18.0,BA=5.64,STAT.D,ExtBa=12.20
21/09/2022,14:27:16,TEMP=18.2,BA=5.64,STAT.D,ExtBa=12.20
21/09/2022,14:39:23,TEMP=18.0,BA=5.64,STAT.D,ExtBa=12.20
21/09/2022,14:42:16,TEMP=18.1,BA=5.56,STAT.D,ExtBa=12.20
21/09/2022,14:54:23,TEMP=17.7,BA=5.64,STAT.D,ExtBa=12.20
21/09/2022,14:57:18,TEMP=17.8,BA=5.64,STAT.F,ExtBa=12.20
21/09/2022,15:01:57,TEMP=17.7,BA=5.64,STAT.A,ExtBa=12.20
21/09/2022,15:15:23,TEMP=17.5,BA=5.64,STAT.D,ExtBa=12.20
21/09/2022,15:18:55,TEMP=17.7,BA=5.64,STAT.A,ExtBa=12.20
21/09/2022,15:30:23,TEMP=17.4,BA=5.64,STAT.D,ExtBa=12.20
21/09/2022,15:32:41,TEMP=17.7,BA=5.64,STAT.A,ExtBa=12.20
21/09/2022,15:44:08,TEMP=17.3,BA=5.64,STAT.C,ExtBa=12.20
21/09/2022,15:53:50,TEMP=17.3,BA=5.64,STAT.A,ExtBa=12.20
21/09/2022,16:02:12,TEMP=17.3,BA=5.64,STAT.A,ExtBa=12.20
21/09/2022,16:09:31,TEMP=17.3,BA=5.64,STAT.A,ExtBa=12.20
21/09/2022,16:15:57,TEMP=17.3,BA=5.60,STAT.A,ExtBa=12.20
21/09/2022,16:21:40,TEMP=17.2,BA=5.64,STAT.B,ExtBa=12.20
21/09/2022,16:33:23,TEMP=17.0,BA=5.64,STAT.D,ExtBa=12.20
21/09/2022,16:35:21,TEMP=17.4,BA=5.64,STAT.A,ExtBa=12.20
21/09/2022,16:42:53,TEMP=16.9,BA=5.64,STAT.A,ExtBa=12.20
21/09/2022,16:50:25,TEMP=16.7,BA=5.64,STAT.A,ExtBa=12.20
21/09/2022,16:56:39,TEMP=16.6,BA=5.64,STAT.A,ExtBa=12.20
21/09/2022,17:06:21,TEMP=16.6,BA=5.64,STAT.A,ExtBa=12.20